When you browse on this site, cookies collect data to enhance your experience and personalize the content and advertising you see.
Visit our Privacy Policy to learn more. By continuing to use the site, you agree to this use of cookies and data.
  • In Belgien
  • Länderverzeichnis
  • Für 7 Tage
  • Wassertemperatur
  • Wetterkarte
  • Widgets
  • user-avatar
    Anmelden

    Stündliche Wetter Annaba

    Heute, 18 September, Mittwoch

    Zeit Temperatur Niederschläge Wind Luftdruck Luftfeuchtigkeit
    00:00 +26°C° 0 mm 1 m/S 760 mmHg 86%
    01:00 +26°C° 0 mm 2 m/S 761 mmHg 86%
    02:00 +26°C° 0.1 mm 2 m/S 760 mmHg 85%
    03:00 +26°C° 0.1 mm 2 m/S 759 mmHg 85%
    04:00 +26°C° 0.1 mm 1 m/S 758 mmHg 84%
    05:00 +26°C° 0 mm 1 m/S 758 mmHg 84%
    06:00 +26°C° 0 mm 1 m/S 759 mmHg 85%
    07:00 +26°C° 0 mm 1 m/S 759 mmHg 86%
    08:00 +27°C° 0 mm 1 m/S 759 mmHg 78%
    09:00 +29°C° 0 mm 1 m/S 759 mmHg 70%
    10:00 +31°C° 0 mm 1 m/S 759 mmHg 63%
    11:00 +32°C° 0 mm 1 m/S 759 mmHg 57%
    12:00 +34°C° 0 mm 2 m/S 759 mmHg 51%
    13:00 +36°C° 0 mm 2 m/S 759 mmHg 45%
    14:00 +36°C° 0 mm 2 m/S 759 mmHg 46%
    15:00 +35°C° 0 mm 3 m/S 759 mmHg 47%
    16:00 +35°C° 0 mm 3 m/S 758 mmHg 48%
    17:00 +33°C° 0 mm 3 m/S 759 mmHg 54%
    18:00 +30°C° 0 mm 3 m/S 759 mmHg 61%
    19:00 +29°C° 0 mm 2 m/S 759 mmHg 68%
    20:00 +28°C° 0.1 mm 2 m/S 760 mmHg 68%
    21:00 +28°C° 0.1 mm 2 m/S 760 mmHg 68%
    22:00 +28°C° 0.1 mm 2 m/S 761 mmHg 68%
    23:00 +28°C° 0 mm 1 m/S 760 mmHg 67%

    Morgen, 19 September, Donnerstag

    Zeit Temperatur Niederschläge Wind Luftdruck Luftfeuchtigkeit
    00:00 +27°C° 0 mm 1 m/S 760 mmHg 65%
    01:00 +27°C° 0 mm 1 m/S 760 mmHg 64%
    02:00 +27°C° 0 mm 1 m/S 759 mmHg 63%
    03:00 +27°C° 0 mm 2 m/S 759 mmHg 63%
    04:00 +27°C° 0 mm 2 m/S 758 mmHg 62%
    05:00 +27°C° 0.2 mm 2 m/S 759 mmHg 65%
    06:00 +27°C° 0.2 mm 2 m/S 759 mmHg 68%
    07:00 +26°C° 0.2 mm 2 m/S 760 mmHg 71%
    08:00 +28°C° 0 mm 2 m/S 760 mmHg 64%
    09:00 +29°C° 0 mm 2 m/S 760 mmHg 58%
    10:00 +31°C° 0 mm 2 m/S 760 mmHg 52%
    11:00 +32°C° 0 mm 2 m/S 760 mmHg 47%
    12:00 +34°C° 0 mm 2 m/S 760 mmHg 43%
    13:00 +36°C° 0 mm 3 m/S 760 mmHg 38%
    14:00 +34°C° 0 mm 3 m/S 759 mmHg 44%
    15:00 +33°C° 0 mm 3 m/S 759 mmHg 49%
    16:00 +32°C° 0 mm 4 m/S 759 mmHg 55%
    17:00 +30°C° 0 mm 3 m/S 759 mmHg 60%
    18:00 +28°C° 0 mm 2 m/S 759 mmHg 65%
    19:00 +27°C° 0 mm 1 m/S 760 mmHg 70%
    20:00 +27°C° 0 mm 1 m/S 760 mmHg 71%
    21:00 +27°C° 0 mm 2 m/S 760 mmHg 71%
    22:00 +26°C° 0 mm 2 m/S 761 mmHg 71%
    23:00 +26°C° 0 mm 2 m/S 761 mmHg 71%

    übermorgen, 20 September, Freitag

    Zeit Temperatur Niederschläge Wind Luftdruck Luftfeuchtigkeit
    00:00 +26°C° 0 mm 2 m/S 760 mmHg 71%
    01:00 +26°C° 0 mm 2 m/S 760 mmHg 71%
    02:00 +26°C° 0 mm 2 m/S 760 mmHg 72%
    03:00 +26°C° 0 mm 2 m/S 759 mmHg 74%
    04:00 +25°C° 0 mm 3 m/S 759 mmHg 75%
    05:00 +25°C° 0 mm 2 m/S 759 mmHg 76%
    06:00 +25°C° 0 mm 2 m/S 759 mmHg 77%
    07:00 +25°C° 0 mm 1 m/S 759 mmHg 78%
    08:00 +27°C° 0 mm 2 m/S 759 mmHg 72%
    09:00 +28°C° 0 mm 2 m/S 760 mmHg 66%
    10:00 +30°C° 0 mm 2 m/S 760 mmHg 59%
    11:00 +31°C° 0 mm 2 m/S 760 mmHg 57%
    12:00 +32°C° 0 mm 2 m/S 760 mmHg 56%
    13:00 +33°C° 0 mm 3 m/S 760 mmHg 54%
    14:00 +33°C° 0 mm 3 m/S 760 mmHg 56%
    15:00 +32°C° 0 mm 4 m/S 759 mmHg 58%
    16:00 +32°C° 0 mm 4 m/S 759 mmHg 60%
    17:00 +30°C° 0 mm 3 m/S 760 mmHg 65%
    18:00 +29°C° 0 mm 3 m/S 760 mmHg 70%
    19:00 +28°C° 0 mm 3 m/S 760 mmHg 75%
    20:00 +28°C° 0 mm 2 m/S 760 mmHg 75%
    21:00 +28°C° 0 mm 2 m/S 761 mmHg 74%
    22:00 +28°C° 0 mm 2 m/S 761 mmHg 74%
    23:00 +28°C° 0 mm 2 m/S 761 mmHg 71%

    21 September, Samstag

    Zeit Temperatur Niederschläge Wind Luftdruck Luftfeuchtigkeit
    00:00 +28°C° 0 mm 2 m/S 760 mmHg 68%
    01:00 +28°C° 0 mm 2 m/S 760 mmHg 65%
    02:00 +28°C° 0 mm 2 m/S 760 mmHg 62%
    03:00 +28°C° 0 mm 2 m/S 759 mmHg 59%
    04:00 +28°C° 0 mm 2 m/S 759 mmHg 55%
    05:00 +28°C° 0.3 mm 2 m/S 759 mmHg 57%
    06:00 +28°C° 0.3 mm 3 m/S 759 mmHg 59%
    07:00 +27°C° 0.3 mm 3 m/S 759 mmHg 61%
    08:00 +29°C° 0.2 mm 3 m/S 759 mmHg 54%
    09:00 +31°C° 0.2 mm 3 m/S 760 mmHg 47%
    10:00 +34°C° 0.2 mm 2 m/S 760 mmHg 40%
    11:00 +35°C° 0 mm 2 m/S 760 mmHg 42%
    12:00 +35°C° 0 mm 3 m/S 760 mmHg 44%
    13:00 +35°C° 0 mm 3 m/S 759 mmHg 46%
    14:00 +35°C° 0 mm 3 m/S 759 mmHg 45%
    15:00 +35°C° 0 mm 3 m/S 759 mmHg 45%
    16:00 +35°C° 0 mm 3 m/S 758 mmHg 44%
    17:00 +34°C° 0 mm 2 m/S 759 mmHg 48%
    18:00 +32°C° 0 mm 2 m/S 759 mmHg 52%
    19:00 +30°C° 0 mm 2 m/S 759 mmHg 56%
    20:00 +30°C° 0 mm 2 m/S 759 mmHg 55%
    21:00 +30°C° 0 mm 2 m/S 759 mmHg 55%
    22:00 +29°C° 0 mm 2 m/S 760 mmHg 55%
    23:00 +29°C° 0 mm 2 m/S 759 mmHg 55%

    22 September, Sonntag

    Zeit Temperatur Niederschläge Wind Luftdruck Luftfeuchtigkeit
    00:00 +29°C° 0 mm 2 m/S 759 mmHg 56%
    01:00 +29°C° 0 mm 2 m/S 759 mmHg 57%
    02:00 +29°C° 0 mm 3 m/S 758 mmHg 58%
    03:00 +29°C° 0 mm 4 m/S 758 mmHg 60%
    04:00 +29°C° 0 mm 5 m/S 758 mmHg 61%
    05:00 +28°C° 0 mm 4 m/S 758 mmHg 63%
    06:00 +28°C° 0 mm 4 m/S 758 mmHg 66%
    07:00 +28°C° 0 mm 3 m/S 758 mmHg 69%
    08:00 +30°C° 0 mm 3 m/S 759 mmHg 58%
    09:00 +34°C° 0 mm 3 m/S 759 mmHg 47%
    10:00 +36°C° 0 mm 3 m/S 759 mmHg 37%
    11:00 +35°C° 0 mm 4 m/S 759 mmHg 40%
    12:00 +35°C° 0 mm 5 m/S 758 mmHg 44%
    13:00 +34°C° 0 mm 5 m/S 758 mmHg 48%
    14:00 +33°C° 0 mm 5 m/S 758 mmHg 51%
    15:00 +32°C° 0 mm 4 m/S 758 mmHg 55%
    16:00 +30°C° 0 mm 3 m/S 758 mmHg 59%
    17:00 +29°C° 0 mm 3 m/S 758 mmHg 62%
    18:00 +29°C° 0 mm 3 m/S 759 mmHg 65%
    19:00 +28°C° 0 mm 2 m/S 759 mmHg 69%
    20:00 +27°C° 0 mm 2 m/S 759 mmHg 70%
    21:00 +27°C° 0 mm 2 m/S 760 mmHg 71%
    22:00 +27°C° 0 mm 2 m/S 760 mmHg 72%
    23:00 +27°C° 0 mm 2 m/S 760 mmHg 74%

    23 September, Montag

    Zeit Temperatur Niederschläge Wind Luftdruck Luftfeuchtigkeit
    00:00 +26°C° 0 mm 2 m/S 760 mmHg 76%
    01:00 +26°C° 0 mm 2 m/S 760 mmHg 78%
    02:00 +26°C° 0 mm 2 m/S 760 mmHg 80%
    03:00 +25°C° 0 mm 2 m/S 760 mmHg 82%
    04:00 +25°C° 0 mm 2 m/S 760 mmHg 84%
    05:00 +25°C° 0 mm 2 m/S 761 mmHg 85%
    06:00 +25°C° 0 mm 2 m/S 761 mmHg 86%
    07:00 +25°C° 0 mm 2 m/S 761 mmHg 88%
    08:00 +26°C° 0 mm 2 m/S 761 mmHg 80%
    09:00 +28°C° 0 mm 2 m/S 762 mmHg 72%
    10:00 +29°C° 0 mm 2 m/S 762 mmHg 64%
    11:00 +30°C° 0 mm 3 m/S 762 mmHg 62%
    12:00 +30°C° 0 mm 4 m/S 762 mmHg 60%
    13:00 +32°C° 0 mm 4 m/S 761 mmHg 58%
    14:00 +30°C° 0 mm 4 m/S 761 mmHg 59%
    15:00 +30°C° 0 mm 4 m/S 761 mmHg 59%
    16:00 +29°C° 0 mm 4 m/S 761 mmHg 60%
    17:00 +28°C° 0 mm 3 m/S 761 mmHg 66%
    18:00 +27°C° 0 mm 2 m/S 761 mmHg 71%
    19:00 +26°C° 0 mm 2 m/S 761 mmHg 77%
    20:00 +25°C° 0 mm 1 m/S 762 mmHg 80%
    21:00 +25°C° 0 mm 1 m/S 762 mmHg 82%
    22:00 +25°C° 0 mm 1 m/S 763 mmHg 84%
    23:00 +24°C° 0 mm 1 m/S 763 mmHg 85%
    Mehr zeigen